Location: Lasqueti Island Observatory
(49.4855°N, 124.2726°W)
Time: 20:55:42
(UTC-08:00)

Daily predictions for brighter satellites

Satellite Brightness Start Highest point End
(mag) Time Altitude Azimuth Time Altitude Azimuth Time Altitude Azimuth
Cosmos 44 Rocket 3.4 18:17:13 10° NW 18:22:15 79° NE 18:27:22 10° SE
USA 238 DEB 4.1 18:17:08 10° SW 18:24:01 71° NW 18:31:03 10° NE
USA 238 4.1 18:17:13 10° SW 18:24:07 71° NW 18:31:09 10° NE
Landsat 4 4.3 18:21:13 10° NNE 18:24:42 36° E 18:28:11 10° SSE
SKYMED 2 3.6 18:21:03 10° NNE 18:25:24 66° ESE 18:29:43 10° S
MTI 3.9 18:29:30 10° NNE 18:32:39 50° E 18:35:46 10° S
Cosmos 1975 Rocket 4.0 18:30:20 10° NNE 18:34:07 27° ENE 18:37:53 10° SE
NOAA 12 4.2 18:28:58 10° SSE 18:34:17 89° WSW 18:39:40 10° NNW
SeaSat 1 3.1 18:31:53 10° ESE 18:36:24 37° NE 18:40:54 10° NNW
SL-8 R/B 4.4 18:40:16 10° SW 18:44:41 38° SSE 18:48:21 14° E
HJ-1C 4.1 18:42:06 10° SE 18:45:13 34° ENE 18:48:21 10° N
USA 215 4.4 18:40:20 10° ENE 18:45:15 23° SE 18:50:14 10° S
Envisat 3.7 18:40:55 10° SE 18:45:26 33° ENE 18:49:58 10° N
Resurs 01 Rocket 2.9 18:43:37 11° ESE 18:46:39 21° ENE 18:49:56 10° NNE
Thor Agena Rocket 4.5 18:44:05 10° NE 18:48:14 24° E 18:52:20 10° SSE
Cosmos 44 4.2 18:43:29 10° NW 18:48:21 55° WSW 18:53:27 10° SSE
ALOS 3.2 18:43:59 10° S 18:48:33 53° W 18:53:09 10° NNW
COSMOS 2455 4.5 18:46:44 10° ESE 18:48:54 12° ESE 18:48:54 12° ESE
YAOGAN 6 4.3 18:49:04 14° ENE 18:49:30 15° ENE 18:51:34 10° NNE
CZ-4C R/B 3.4 18:43:43 10° NW 18:49:57 39° NNE 18:55:55 14° E
Cosmos 1943 4.1 18:46:06 10° NNW 18:51:04 30° NE 18:55:02 14° E
Cosmos 1513 Rocket 4.5 18:46:55 10° N 18:53:18 68° ENE 18:59:32 10° SSE
CZ-2C R/B 4.4 18:49:05 10° N 18:53:28 55° WNW 18:57:47 10° SSW
FengYun 1-2 T 4.2 18:48:18 10° SSE 18:53:47 76° ENE 18:59:17 10° NNW
Cosmos 1378 Rocket 3.5 18:52:01 10° N 18:56:27 78° ENE 19:00:53 10° SSE
USA 32 4.3 18:52:42 10° SSE 18:57:39 45° E 19:02:37 10° NNE
DNEPR-1 R/B 3.7 18:54:19 10° SW 18:58:30 73° NW 19:03:02 10° NE
USA 186 3.1 18:59:32 21° E 19:00:09 22° ENE 19:02:46 10° NNE
ATLAS CENTAUR R/B 2.6 18:57:02 10° NNW 19:00:29 26° NE 19:02:23 19° ENE
NOSS 3-2 (C) 3.6 18:54:28 10° SW 19:00:33 84° NW 19:07:24 10° NE
Cosmos 1633 2.4 18:59:35 10° S 19:03:07 72° E 19:06:43 10° NNE
Cosmos 2237 Rocket 4.5 19:00:29 10° NW 19:05:08 27° WSW 19:09:47 10° SSW
SJ-6B 2.8 19:03:45 10° SSE 19:07:28 56° ENE 19:11:18 10° N
Cosmos 2227 Rocket 2.7 19:02:56 10° SW 19:08:32 62° WNW 19:14:10 10° NNE
H-2A R/B 3.3 19:05:26 10° S 19:09:19 64° W 19:13:12 10° NNW
Cosmos 1782 Rocket 3.8 19:05:37 10° SSE 19:09:49 44° E 19:14:01 10° NNE
SL-16 R/B 2.9 19:04:46 10° NW 19:10:19 56° WSW 19:15:49 10° S
COSMO-SKYMED 1 3.9 19:09:20 10° N 19:13:27 43° WNW 19:17:33 10° SW
ERS-2 2.3 19:10:32 10° S 19:14:13 74° WSW 19:17:55 10° NNW
Sich 1 Rocket 3.5 19:11:43 10° S 19:16:10 66° E 19:20:35 10° NNE
Okean 1 3.3 19:13:58 10° N 19:18:00 87° W 19:21:59 10° S
Tsikada Rocket 4.2 19:13:39 10° SSE 19:19:49 52° E 19:26:01 10° NNE
H-2A R/B 3.9 19:21:14 14° NE 19:21:14 14° NE 19:23:42 10° NNE
CENTAUR R/B 2.5 19:15:36 10° SSW 19:21:39 68° SE 19:28:41 10° NE
USA 267 3.4 19:17:25 21° E 19:21:52 60° NNE 19:28:17 10° WNW
Cosmos 2297 Rocket 2.8 19:16:43 10° SW 19:22:17 57° NW 19:27:54 10° NNE
CRYOSAT 2 4.4 19:18:21 10° NNE 19:23:11 56° E 19:27:57 10° S
Meteor 1-13 Rocket 4.2 19:19:13 10° N 19:24:42 58° ENE 19:30:07 10° SSE
Cosmos 1331 Rocket 4.1 19:21:19 10° NNW 19:26:35 59° ENE 19:30:19 19° SE
Iridium 4 Rocket 3.5 19:21:41 10° N 19:26:40 73° W 19:31:10 10° S
Cosmos 1464 Rocket 4.4 19:22:40 10° NNW 19:28:44 64° W 19:34:46 10° S
Cosmos 1603 3.6 19:23:22 10° NNW 19:29:04 79° ENE 19:34:01 14° SSE
CZ-2D R/B 3.2 19:25:15 10° SSE 19:29:09 83° ENE 19:33:05 10° NNW
Okean 2 Rocket 3.3 19:26:23 10° SSE 19:30:33 44° E 19:34:45 10° NNE
Cosmos 158 Rocket 4.0 19:27:35 10° SSW 19:32:27 74° WNW 19:37:22 10° NNE
Meteor 1-20 Rocket 4.5 19:29:22 10° SSW 19:35:06 74° WNW 19:40:58 10° N
Spot 2 Rocket 3.7 19:32:44 26° SE 19:35:13 47° ENE 19:40:05 10° N
Cosmos 1048 Rocket 3.9 19:34:22 10° SSW 19:39:42 88° ESE 19:44:59 10° NNE
Cosmos 1602 3.6 19:36:08 10° S 19:40:00 72° E 19:43:54 10° NNE
Cosmos 921 Rocket 4.2 19:39:28 10° NNW 19:43:48 46° WSW 19:48:05 10° S
Cosmos 2263 Rocket 4.2 19:46:28 10° SSE 19:46:47 11° SSE 19:46:47 11° SSE
ATLAS 3B R/B 4.0 19:46:16 10° W 19:52:40 35° NNW 19:58:50 10° NE
Cosmos 1302 Rocket 4.0 19:51:21 10° NNW 19:56:32 60° ENE 19:57:34 50° ESE
Cosmos 2279 Rocket 4.2 19:51:58 10° N 19:57:57 45° ENE 19:59:00 42° E
Cosmos 1437 Rocket 3.3 19:54:13 10° SSW 19:58:15 61° WNW 20:02:21 10° N
ARGOS Delta rocket 3.9 19:59:44 10° N 20:04:41 76° WNW 20:09:18 10° SSW
Meteor 2-4 Rocket 3.7 19:59:02 10° NNW 20:04:54 85° W 20:09:40 15° S
Resurs 1-3 3.7 20:06:32 37° S 20:08:15 75° WSW 20:12:39 10° NNW
SJ-11-01 4.2 20:08:13 58° SSE 20:09:09 82° ENE 20:13:55 10° NNW
ARGOS 4.0 20:10:21 34° NE 20:10:21 34° NE 20:14:20 10° N
Cosmos 1184 Rocket 4.0 20:07:13 10° NNW 20:09:30 38° NW 20:09:30 38° NW
Cosmos 2346 Rocket 4.4 20:05:04 10° S 20:11:17 90° W 20:17:28 10° N
Meteor 1-5 Rocket 4.3 20:06:38 10° S 20:12:25 61° E 20:18:19 10° NNE
Cosmos 2227 4.1 20:07:01 10° SSW 20:12:45 85° ESE 20:17:14 17° NNE
SeaSat 1 3.5 20:09:52 14° S 20:13:51 43° WSW 20:18:34 10° NW
Meteor 1-11 Rocket 3.6 20:10:20 10° S 20:15:56 86° E 20:21:42 10° NNE
Cosmos 1939 Rocket 3.2 20:16:00 58° SSW 20:16:34 66° WSW 20:20:41 10° NNW
Cosmos 1634 Rocket 3.9 20:11:06 10° N 20:17:19 86° W 20:21:38 21° S
YAOGAN 6 3.7 20:23:29 43° NW 20:23:29 43° NW 20:26:14 10° NNW
Resurs 01 Rocket 2.2 20:21:10 34° SSW 20:22:47 55° W 20:27:10 10° NNW
Cosmos 2082 Rocket 4.4 20:22:17 10° N 20:23:58 11° NNE 20:24:14 11° NNE
Envisat 4.3 20:19:38 10° SSW 20:24:23 39° W 20:29:10 10° NNW
Cosmos 2142 Rocket 4.5 20:20:27 10° N 20:26:52 85° W 20:29:58 33° S
SL-8 R/B 3.9 20:22:08 10° WSW 20:26:20 65° SW 20:26:20 65° SW
Thor Agena Rocket 4.2 20:22:53 10° N 20:27:51 52° WNW 20:32:44 10° SW
USA 215 3.1 20:27:42 56° E 20:29:02 71° SE 20:35:34 10° SW
USA 186 4.0 20:31:05 26° W 20:31:05 26° W 20:33:41 10° NW
NOAA 11 4.0 20:31:45 79° SSE 20:32:07 90° E 20:37:35 10° NNW
COSMOS 2455 3.2 20:27:51 10° SSW 20:32:11 47° S 20:32:11 47° S
Cosmos 1943 3.6 20:29:56 10° NW 20:35:30 60° WSW 20:36:54 46° SSW
COSMOS 2406 4.4 20:31:43 10° NNW 20:35:30 28° NNE 20:35:30 28° NNE
CZ-4C R/B 2.9 20:32:10 10° NW 20:39:11 80° SW 20:41:08 54° SSE
ATLAS CENTAUR R/B 2.5 20:35:39 10° NW 20:38:40 44° WNW 20:38:40 44° WNW
Cosmos 494 Rocket 4.0 20:34:31 10° SSW 20:39:36 75° W 20:39:36 75° W
Cosmos 1536 Rocket 4.4 20:38:18 10° NNW 20:42:00 48° WNW 20:42:00 48° WNW
H-2A R/B 3.3 21:01:52 34° N 21:01:52 34° N 21:04:56 10° N
USA 267 3.3 21:04:45 65° SSW 21:04:53 66° SW 21:11:24 10° WNW
CENTAUR R/B 3.7 21:06:43 10° W 21:12:50 42° NNW 21:16:31 25° NNE
ATLAS 3B R/B 4.3 21:39:54 10° NW 21:45:23 24° N 21:46:10 24° N
